Stations météo

Publicité
Bergerac, France (7530): Température de l'air & dewpoint: 10.11.2018 17:00:00 - 16.11.2018 17:00:00 (CET)Bergerac, France (7530): Température de l'air 5cm: 10.11.2018 17:00:00 - 16.11.2018 17:00:00 (CET)Bergerac, France (7530): Température de l'air -20cm & Température de l'air -100cm: 10.11.2018 17:00:00 - 16.11.2018 17:00:00 (CET)Bergerac, France (7530): Vitesse du vent & gusts: 10.11.2018 17:00:00 - 16.11.2018 17:00:00 (CET)Bergerac, France (7530): Direction du vent: 10.11.2018 17:00:00 - 16.11.2018 17:00:00 (CET)Bergerac, France (7530): reduced air pressure: 10.11.2018 17:00:00 - 16.11.2018 17:00:00 (CET)Bergerac, France (7530): visibility: 10.11.2018 17:00:00 - 16.11.2018 17:00:00 (CET)Bergerac, France (7530): Ensoleillement: 10.11.2018 17:00:00 - 16.11.2018 17:00:00 (CET)Bergerac, France (7530): Quantités de précipitations: 10.11.2018 17:00:00 - 16.11.2018 17:00:00 (CET)
Date & Time tt [°C] td [°C] tt 5cm [°C] tt -20cm [°C] tt -100cm [°C] ff [km/h] ff [knt] fx [km/h] fx [knt] dd ppp [hPa] vv [km] sd [min] rr [mm]
16.11.2018 17:00:00 16,9 11,2 13,1 12,6 14,6 7 4 27 14 E 1019,7 22 60 0,0
16.11.2018 16:00:00 18,6 11,9 20,2 12,5 14,6 14 7 22 12 E 1020,0 35 60 0,0
16.11.2018 15:00:00 18,9 11,5 22,4 12,3 14,6 13 7 20 11 ENE 1020,3 36 60 0,0
16.11.2018 14:00:00 18,1 12,3 22,3 12,2 14,6 8 4 16 9 NE 1020,8 33 60 0,0
16.11.2018 13:00:00 16,9 12,4 20,3 12,1 14,6 8 5 17 9 NE 1021,2 20 60 0,0
16.11.2018 12:00:00 15,2 12,0 17,9 12,1 14,6 10 5 16 8 ENE 1021,7 16 60 0,0
16.11.2018 11:00:00 13,0 11,1 14,8 12,1 14,6 9 5 14 8 ENE 1022,3 17 60 0,0
16.11.2018 10:00:00 10,8 10,5 8,9 12,2 14,6 7 4 10 6 E 1022,2 13 60 0,0
16.11.2018 09:00:00 7,6 7,6 3,1 12,3 14,6 5 3 10 5 E 1022,2 3,3 38 0,0
16.11.2018 08:00:00 5,2 5,1 1,9 12,4 14,6 6 3 8 4 E 1022,1 0,3 0 0,0
16.11.2018 07:00:00 5,4 5,3 2,3 12,5 14,6 4 2 9 5 E 1021,8 0,3 0 0,0
16.11.2018 06:00:00 5,6 5,5 2,9 12,5 14,6 5 3 10 5 E 1021,5 0,5 0 0,0
16.11.2018 05:00:00 5,9 5,8 3,8 12,6 14,6 4 2 11 6 E 1021,7 0,8 0 0,0
16.11.2018 04:00:00 6,0 5,9 4,7 12,7 14,6 8 4 11 6 E 1021,5 2,1 0 0,0
16.11.2018 03:00:00 6,8 6,7 3,7 12,8 14,6 9 5 11 6 E 1021,7 1,0 0 0,0
16.11.2018 02:00:00 6,8 6,7 4,3 12,9 14,6 7 4 9 5 ENE 1021,8 0,7 0 0,0
16.11.2018 01:00:00 7,1 7,0 3,9 13,0 14,6 7 4 10 6 ENE 1021,7 0,2 0 0,0
16.11.2018 00:00:00 7,5 7,2 4,7 13,0 14,6 6 4 9 5 ENE 1021,9 0,2 0 0,0
15.11.2018 23:00:00 8,6 8,5 5,2 13,1 14,6 5 3 8 4 ENE 1021,7 0,2 0 0,0
15.11.2018 22:00:00 9,3 9,2 6,2 13,2 14,6 6 3 9 5 ENE 1021,3 0,1 0 0,0
15.11.2018 21:00:00 10,8 10,6 6,4 13,2 14,6 6 4 10 6 ENE 1020,6 0,2 0 0,0
15.11.2018 20:00:00 11,4 11,1 6,6 13,2 14,6 2 1 7 4 E 1020,2 0,4 0 0,0
15.11.2018 19:00:00 12,1 11,5 7,5 13,1 14,6 4 2 9 5 SE 1019,8 3,6 0 0,0
15.11.2018 18:00:00 14,8 13,3 9,3 13,0 14,6 6 3 6 3 E 1019,4 12 5 0,0
15.11.2018 17:00:00 18,1 14,2 15,9 12,9 14,6 4 2 5 3 SE 1019,3 23 33 0,0
15.11.2018 16:00:00 19,6 13,8 21,2 12,8 14,6 3 1 18 10 E 1019,1 20 23 0,0
15.11.2018 15:00:00 19,9 13,6 23,5 12,6 14,6 10 6 21 11 SSE 1019,2 41 60 0,0
15.11.2018 14:00:00 19,8 13,3 23,3 12,5 14,6 11 6 24 13 S 1019,4 25 58 0,0
15.11.2018 13:00:00 18,0 13,9 19,3 12,5 14,6 8 4 13 7 ENE 1020,0 20 36 0,0
15.11.2018 12:00:00 16,0 12,7 16,6 12,4 14,6 9 5 18 10 NE 1020,4 20 32 0,0
15.11.2018 11:00:00 14,8 12,3 16,1 12,5 14,6 10 5 14 7 ENE 1020,6 19 40 0,0
15.11.2018 10:00:00 12,0 11,7 9,2 12,5 14,6 7 4 10 5 ENE 1020,6 14 57 0,0
15.11.2018 09:00:00 8,4 8,4 4,1 12,7 14,6 4 2 7 4 E 1020,4 7 22 0,0
15.11.2018 08:00:00 6,7 6,6 3,2 12,8 14,6 2 1 6 4 ESE 1020,1 0,3 0 0,0
15.11.2018 07:00:00 6,2 6,1 3,2 12,9 14,6 5 3 7 4 ENE 1019,9 0,7 0 0,0
15.11.2018 06:00:00 6,5 6,4 3,3 12,9 14,6 4 2 8 4 NE 1019,8 0,7 0 0,0
15.11.2018 05:00:00 7,4 7,1 3,7 13,1 14,6 4 2 6 3 SE 1019,7 0,2 0 0,0
15.11.2018 04:00:00 7,8 7,5 3,8 13,1 14,6 5 3 9 5 ENE 1019,7 0,2 0 0,0
15.11.2018 03:00:00 8,5 8,2 4,5 13,2 14,6 7 4 10 5 E 1020,1 2,1 0 0,0
15.11.2018 02:00:00 9,1 8,2 4,6 13,2 14,6 4 2 9 5 ENE 1020,4 2,1 0 0,0
15.11.2018 01:00:00 11,0 9,7 6,2 13,3 14,6 5 3 13 7 ENE 1020,4 9 0 0,0
15.11.2018 00:00:00 12,6 10,8 7,8 13,3 14,6 5 3 14 8 E 1020,5 20 0 0,0
14.11.2018 23:00:00 13,4 11,8 11,6 13,3 14,6 7 4 13 7 ENE 1020,7 19 0 0,0
14.11.2018 22:00:00 13,7 11,9 12,0 13,3 14,6 9 5 13 7 E 1020,8 19 0 0,0
14.11.2018 21:00:00 13,2 12,7 11,6 13,3 14,6 7 4 10 5 E 1021,0 9 0 0,0
14.11.2018 20:00:00 12,0 11,5 7,3 13,3 14,6 4 2 6 3 ENE 1021,3 7 0 0,0
14.11.2018 19:00:00 12,5 11,2 8,5 13,2 14,6 5 3 10 6 SE 1021,2 3,2 0 0,0
14.11.2018 18:00:00 15,0 13,5 11,5 13,2 14,6 3 2 4 2 E 1020,9 13 0 0,0
14.11.2018 17:00:00 17,3 13,6 14,0 13,0 14,6 4 2 8 4 ENE 1021,0 27 0 0,0
14.11.2018 16:00:00 18,9 14,0 19,6 12,9 14,6 6 3 18 10 E 1021,2 34 21 0,0
14.11.2018 15:00:00 19,4 13,3 20,5 12,8 14,6 13 7 26 14 SE 1021,5 38 7 0,0
14.11.2018 14:00:00 19,6 13,5 21,9 12,6 14,6 9 5 22 12 E 1021,8 29 53 0,0
14.11.2018 13:00:00 17,6 13,9 21,3 12,5 14,6 7 4 15 8 ENE 1022,5 30 60 0,0
14.11.2018 12:00:00 15,7 13,2 17,7 12,5 14,7 8 4 16 9 E 1023,4 31 60 0,0
14.11.2018 11:00:00 13,2 11,9 15,2 12,5 14,6 9 5 14 8 E 1024,1 29 60 0,0
14.11.2018 10:00:00 10,3 10,3 8,8 12,5 14,6 4 2 7 4 E 1024,5 2,1 31 0,0
14.11.2018 09:00:00 7,8 7,8 6,4 12,5 14,6 2 1 7 4 E 1024,7 0,2 0 0,0
14.11.2018 08:00:00 7,1 7,1 6,5 12,6 14,6 4 2 8 4 E 1024,6 0,3 0 0,0
14.11.2018 07:00:00 7,4 7,4 6,9 12,6 14,6 0 0 3 2 N 1024,7 0,2 0 0,0
14.11.2018 06:00:00 6,7 6,7 6,3 12,7 14,6 0 0 7 4 N 1024,9 0,3 0 0,0
14.11.2018 05:00:00 6,8 6,7 6,7 12,8 14,6 4 2 9 5 S 1025,2 0,1 0 0,0
14.11.2018 04:00:00 7,5 7,5 6,4 12,9 14,6 7 4 12 6 E 1025,4 0,2 0 0,0
14.11.2018 03:00:00 7,6 7,6 5,0 13,0 14,6 5 3 15 8 E 1025,8 0,2 0 0,0
14.11.2018 02:00:00 5,5 5,4 3,4 13,1 14,6 7 4 9 5 ENE 1026,1 0,9 0 0,0
14.11.2018 01:00:00 6,1 6,0 3,7 13,2 14,6 4 2 8 4 E 1026,7 1,2 0 0,0
14.11.2018 00:00:00 6,4 6,3 4,0 13,3 14,6 6 3 8 4 E 1027,2 0,4 0 0,0
13.11.2018 23:00:00 6,4 6,1 4,0 13,4 14,6 5 3 8 4 ENE 1027,6 0,9 0 0,0
13.11.2018 22:00:00 6,6 6,3 3,9 13,5 14,6 3 2 7 4 ESE 1028,0 0,6 0 0,0
13.11.2018 21:00:00 7,0 6,4 4,0 13,6 14,6 0 0 5 3 N 1028,1 0,8 0 0,0
13.11.2018 20:00:00 8,0 7,4 4,6 13,6 14,6 0 0 5 3 N 1028,2 0,2 0 0,0
13.11.2018 19:00:00 9,4 8,6 5,4 13,6 14,6 2 1 6 3 N 1027,9 4,3 0 0,0
13.11.2018 18:00:00 12,4 9,9 7,1 13,6 14,6 2 1 13 7 ENE 1027,7 50 7 0,0
13.11.2018 17:00:00 14,9 10,1 13,3 13,5 14,6 7 4 17 9 NNE 1027,9 60 60 0,0
13.11.2018 16:00:00 16,0 10,7 16,9 13,4 14,6 9 5 23 13 NNE 1028,1 20 39 0,0
13.11.2018 15:00:00 16,4 10,7 17,0 13,3 14,6 8 4 16 8 N 1028,3 55 39 0,0
13.11.2018 14:00:00 16,0 9,6 17,7 13,2 14,6 7 4 22 12 N 1028,3 39 45 0,0
13.11.2018 13:00:00 15,1 11,5 15,9 13,1 14,6 10 5 18 10 N 1028,6 53 33 0,0
13.11.2018 12:00:00 14,0 11,3 16,7 13,1 14,6 7 4 12 6 NNW 1029,2 12 41 0,0
13.11.2018 11:00:00 12,5 11,7 13,7 13,0 14,6 4 2 9 5 NNW 1029,6 29 37 0,0
13.11.2018 10:00:00 10,8 10,6 10,9 13,1 14,6 3 2 6 3 S 1029,2 0,6 23 0,0
13.11.2018 09:00:00 10,1 9,9 8,2 13,1 14,6 2 1 4 2 SW 1028,7 0,1 0 0,0
13.11.2018 08:00:00 8,9 8,8 7,3 13,2 14,6 3 1 5 3 WNW 1027,9 0,2 0 0,0
13.11.2018 07:00:00 9,8 9,7 8,7 13,2 14,6 5 3 9 5 WSW 1027,3 0,1 0 0,0
13.11.2018 06:00:00 10,5 10,2 9,9 13,2 14,5 4 2 6 3 W 1026,8 0,5 0 0,0
13.11.2018 05:00:00 10,6 10,3 9,7 13,2 14,6 5 3 8 4 WNW 1026,3 4,6 0 0,2
13.11.2018 04:00:00 10,8 10,5 10,0 13,3 14,6 4 2 5 3 W 1025,7 2,9 0 0,2
13.11.2018 03:00:00 11,0 10,7 10,2 13,3 14,6 4 2 8 5 SSW 1025,7 9 0 0,0
13.11.2018 02:00:00 11,1 10,6 10,4 13,3 14,6 3 1 10 5 SSW 1024,6 1,2 0 0,8
13.11.2018 01:00:00 11,5 11,2 10,8 13,3 14,6 10 5 15 8 W 1024,3 20 0 0,2
13.11.2018 00:00:00 11,4 10,9 10,8 13,3 14,6 2 1 13 7 E 1022,7 5 0 3,3
12.11.2018 23:00:00 11,7 11,2 11,3 13,3 14,6 8 4 16 9 WNW 1022,2 4,0 0 3,0
12.11.2018 22:00:00 12,1 11,3 11,6 13,3 14,5 11 6 21 11 WNW 1021,4 8 0 1,0
12.11.2018 21:00:00 12,6 12,0 12,2 13,3 14,6 10 5 15 8 WNW 1020,4 12 0 0,0
12.11.2018 20:00:00 12,7 11,9 12,0 13,3 14,6 5 3 8 4 W 1019,9 12 0 0,0
12.11.2018 19:00:00 13,0 11,9 12,3 13,3 14,5 6 3 13 7 WNW 1019,1 15 0 0,0
12.11.2018 18:00:00 12,9 12,1 11,8 13,3 14,6 8 4 10 6 WNW 1018,5 17 0 0,0
12.11.2018 17:00:00 13,4 12,1 12,8 13,2 14,5 6 3 14 8 W 1018,0 11 0 0,0
12.11.2018 16:00:00 13,9 12,3 13,8 13,1 14,6 9 5 20 11 W 1017,7 20 0 0,0
12.11.2018 15:00:00 14,2 12,8 14,2 13,0 14,6 16 8 21 12 W 1017,4 15 0 0,0
12.11.2018 14:00:00 15,7 13,4 16,9 12,8 14,5 14 8 21 12 WNW 1017,1 18 12 0,0
12.11.2018 13:00:00 16,5 14,1 17,2 12,8 14,5 4 2 14 7 WSW 1016,8 30 0 0,0
12.11.2018 12:00:00 14,5 12,9 15,7 12,8 14,5 5 3 16 8 NW 1016,8 20 1 0,0
12.11.2018 11:00:00 13,8 12,9 13,9 12,8 14,6 7 4 11 6 WNW 1016,6 20 0 0,0
12.11.2018 10:00:00 13,1 12,8 11,2 12,8 14,6 0 0 11 6 N 1015,5 19 0 0,0
12.11.2018 09:00:00 11,5 11,2 9,4 12,8 14,5 3 2 6 3 E 1014,9 16 10 0,0
12.11.2018 08:00:00 10,3 10,0 7,5 12,9 14,5 3 2 16 8 W 1013,9 19 0 0,0
12.11.2018 07:00:00 9,8 9,3 6,5 13,0 14,5 6 3 13 7 NNE 1012,3 14 0 0,0
12.11.2018 06:00:00 10,8 10,3 6,7 13,1 14,5 7 4 25 14 SSE 1010,5 19 0 0,0
12.11.2018 05:00:00 12,5 11,6 7,5 13,1 14,5 15 8 26 14 SE 1009,7 46 0 0,2
12.11.2018 04:00:00 9,2 9,1 5,9 13,2 14,5 9 5 14 7 ENE 1010,1 6 0 0,0
12.11.2018 03:00:00 9,9 9,6 5,4 13,3 14,5 7 4 10 5 NE 1009,9 1,1 0 0,0
12.11.2018 02:00:00 9,5 9,0 6,2 13,3 14,6 5 3 16 8 E 1009,3 9 0 0,0
12.11.2018 01:00:00 10,0 9,5 7,6 13,3 14,5 9 5 15 8 E 1009,4 0,5 0 0,0
12.11.2018 00:00:00 12,2 11,7 9,3 13,3 14,5 4 2 7 4 SE 1009,8 10 0 0,0
11.11.2018 23:00:00 13,4 12,5 10,5 13,3 14,5 4 2 10 5 E 1010,1 16 0 0,0
11.11.2018 22:00:00 14,2 13,1 12,6 13,3 14,5 6 3 15 8 NNE 1010,4 26 0 0,0
11.11.2018 21:00:00 15,5 13,5 14,2 13,2 14,5 8 4 22 12 ENE 1010,2 36 0 0,0
11.11.2018 20:00:00 16,9 13,4 14,9 13,2 14,5 14 8 25 13 SSE 1010,2 33 0 0,0
11.11.2018 19:00:00 16,9 13,6 14,7 13,1 14,6 9 5 18 10 SE 1010,2 55 0 0,0
11.11.2018 18:00:00 16,9 13,6 15,3 13,0 14,5 6 3 18 10 E 1010,0 38 0 0,0
11.11.2018 17:00:00 18,1 13,8 17,5 12,8 14,5 12 6 26 14 SE 1009,9 52 0 0,0
11.11.2018 16:00:00 18,1 14,0 18,0 12,7 14,6 16 9 28 15 SE 1009,9 48 14 0,0
11.11.2018 15:00:00 18,4 13,7 19,7 12,6 14,5 18 10 30 16 SSE 1010,0 39 22 0,0
11.11.2018 14:00:00 18,9 13,5 20,3 12,4 14,5 13 7 26 14 SE 1010,0 50 47 0,0
11.11.2018 13:00:00 18,0 13,1 19,0 12,3 14,5 16 9 34 19 SSE 1010,0 33 42 0,0
11.11.2018 12:00:00 17,0 12,7 17,3 12,3 14,5 18 10 32 18 SSE 1010,7 24 40 0,0
11.11.2018 11:00:00 15,1 12,2 15,5 12,3 14,5 18 10 37 20 SSE 1010,5 22 45 0,0
11.11.2018 10:00:00 13,8 11,7 13,0 12,3 14,5 20 11 34 19 SSE 1010,5 40 41 0,0
11.11.2018 09:00:00 12,6 11,2 8,7 12,3 14,5 13 7 26 14 SE 1010,2 20 39 0,0
11.11.2018 08:00:00 10,7 9,9 8,8 12,4 14,5 6 4 24 13 E 1009,9 31 0 0,0
11.11.2018 07:00:00 11,0 9,9 9,4 12,4 14,6 14 8 26 14 SE 1009,5 43 0 0,0
11.11.2018 06:00:00 10,8 9,9 8,2 12,5 14,6 13 7 28 15 SE 1009,4 56 0 0,0
11.11.2018 05:00:00 10,8 9,7 9,1 12,5 14,5 15 8 25 14 SE 1009,6 60 0 0,0
11.11.2018 04:00:00 10,8 9,9 8,7 12,5 14,5 14 8 27 15 SSE 1009,8 60 0 0,0
11.11.2018 03:00:00 10,8 10,0 9,0 12,5 14,6 8 4 18 10 ENE 1010,2 58 0 0,0
11.11.2018 02:00:00 11,8 10,7 10,8 12,5 14,5 6 4 20 11 ENE 1010,2 42 0 0,0
11.11.2018 01:00:00 11,5 10,6 10,1 12,5 14,5 7 4 18 10 SE 1010,0 60 0 0,0
11.11.2018 00:00:00 11,6 10,7 10,8 12,5 14,5 9 5 23 13 SSE 1009,9 59 0 0,0
10.11.2018 23:00:00 11,4 10,9 10,8 12,5 14,6 6 4 16 8 E 1010,1 3,9 0 1,0
10.11.2018 22:00:00 11,4 11,1 10,9 12,5 14,5 4 2 8 5 NE 1010,0 7 0 1,6
10.11.2018 21:00:00 11,6 11,1 10,7 12,5 14,5 7 4 10 6 NNW 1009,4 3,8 0 0,8
10.11.2018 20:00:00 11,5 10,9 9,5 12,5 14,5 6 3 16 8 E 1008,6 38 0 0,0
10.11.2018 19:00:00 12,0 11,2 11,1 12,5 14,6 6 3 14 8 ESE 1008,3 57 0 0,2
10.11.2018 18:00:00 12,1 11,2 10,7 12,4 14,6 5 3 11 6 E 1007,9 57 0 0,0
10.11.2018 17:00:00 12,4 11,3 11,6 12,4 14,6 7 4 16 9 E 1007,7 60 23 0,0

tt = Température de l'air
td = dewpoint
tt 5cm = Température de l'air 5cm
tt -20cm = Température de l'air -20cm
tt -100cm = Température de l'air -100cm
ff = Vitesse du vent
fx = gusts
dd = Direction du vent
ppp = reduced air pressure
vv = visibility
sd = Ensoleillement
rr = Quantités de précipitations

stations d'obs. à proximité